Change the Weather History Date:

Friday, August 23, 2013

  Actual Average Record
Temperature  
Mean Temperature 42 °F -  
Max Temperature 44 °F 47 °F 60 °F (2004)
Min Temperature 39 °F 41 °F 39 °F (2006)
Degree Days  
Heating Degree Days 24    
Moisture  
Dew Point 36 °F    
Average Humidity 78    
Maximum Humidity 87    
Minimum Humidity 71    
Precipitation  
Precipitation 0.00 in - - ()
Sea Level Pressure  
Sea Level Pressure 29.92 in    
Wind  
Wind Speed 21 mph (North)    
Max Wind Speed 25 mph    
Max Gust Speed 29 mph    
Visibility 10 miles    
Events      
Averages and records for this station are not official NWS values.
T = Trace of Precipitation, MM = Missing Value Source: NWS Daily Summary

Daily Weather History Graph

Daily Weather History Graph

Search for Another Location

Airport or City:

Trip Planner

Search our weather history database for the weather conditions in past years. The results will help you decide how hot, cold, wet, or windy it might be!

Date:

Astronomy

Aug. 23, 2013 Rise Set
Actual Time 6:58 AM AKDT 11:17 PM AKDT
Civil Twilight 5:40 AM AKDT 12:33 AM AKDT
Nautical Twilight 3:42 AM AKDT 2:37 AM AKDT
Astronomical Twilight Sun does not rise Sun does not rise
Moon 10:27 PM AKDT (8/23) 12:13 PM AKDT (8/23)
Length of Visible Light 18h 53m
Length of Day
16h 18m
Waning Gibbous, 90% of the Moon is Illuminated
Aug 23
Waning Gibbous
Aug 28
Last Quarter
Sep 5
New
Sep 12
First Quarter
Sep 19
Full

Hourly Weather History & Observations

Time (AKDT) Temp. Windchill Dew Point Humidity Pressure Visibility Wind Dir Wind Speed Gust Speed Precip Events Conditions
12:16 AM 42.8 °F 33.1 °F 37.4 °F 81% 29.75 in 10.0 mi North 25.3 mph - N/A   Clear
12:36 AM 42.8 °F 33.8 °F 37.4 °F 81% 29.76 in 10.0 mi North 21.9 mph - N/A   Clear
12:56 AM 42.8 °F 33.5 °F 37.4 °F 81% 29.76 in 10.0 mi North 23.0 mph - N/A   Clear
1:16 AM 42.8 °F 33.3 °F 35.6 °F 76% 29.77 in 10.0 mi North 24.2 mph 28.8 mph N/A   Clear
1:36 AM 42.8 °F 33.1 °F 35.6 °F 76% 29.78 in 10.0 mi NNE 25.3 mph 28.8 mph N/A   Clear
1:56 AM 42.8 °F 33.5 °F 35.6 °F 76% 29.78 in 10.0 mi North 23.0 mph 27.6 mph N/A   Clear
2:16 AM 42.8 °F 33.5 °F 35.6 °F 76% 29.79 in 10.0 mi NNE 23.0 mph 28.8 mph N/A   Clear
2:36 AM 42.8 °F 33.1 °F 35.6 °F 76% 29.79 in 10.0 mi NNE 25.3 mph - N/A   Clear
2:56 AM 42.8 °F 33.5 °F 35.6 °F 76% 29.80 in 10.0 mi North 23.0 mph - N/A   Clear
3:16 AM 42.8 °F 33.8 °F 35.6 °F 76% 29.81 in 10.0 mi North 21.9 mph - N/A   Clear
3:56 AM 42.8 °F 33.5 °F 35.6 °F 76% 29.82 in 10.0 mi North 23.0 mph - N/A   Clear
4:16 AM 42.8 °F 33.5 °F 35.6 °F 76% 29.83 in 10.0 mi North 23.0 mph - N/A   Clear
4:36 AM 42.8 °F 33.8 °F 35.6 °F 76% 29.83 in 10.0 mi North 21.9 mph 25.3 mph N/A   Clear
4:56 AM 42.8 °F 33.3 °F 35.6 °F 76% 29.84 in 10.0 mi North 24.2 mph - N/A   Clear
5:16 AM 42.8 °F 33.5 °F 35.6 °F 76% 29.84 in 10.0 mi NNE 23.0 mph - N/A   Mostly Cloudy
5:36 AM 42.8 °F 33.8 °F 37.4 °F 81% 29.85 in 10.0 mi NNE 21.9 mph 25.3 mph N/A   Overcast
5:56 AM 42.8 °F 33.5 °F 37.4 °F 81% 29.86 in 10.0 mi NNE 23.0 mph - N/A   Overcast
6:16 AM 42.8 °F 33.5 °F 37.4 °F 81% 29.87 in 10.0 mi NNE 23.0 mph - N/A   Overcast
6:36 AM 44.6 °F 36.1 °F 37.4 °F 76% 29.87 in 10.0 mi North 21.9 mph - N/A   Overcast
6:56 AM 44.6 °F 35.9 °F 37.4 °F 76% 29.87 in 10.0 mi NNE 23.0 mph - N/A   Overcast
7:16 AM 44.6 °F 35.7 °F 37.4 °F 76% 29.88 in 10.0 mi North 24.2 mph 28.8 mph N/A   Overcast
7:36 AM 44.6 °F 35.9 °F 37.4 °F 76% 29.88 in 10.0 mi North 23.0 mph 28.8 mph N/A   Overcast
7:56 AM 44.6 °F 35.5 °F 35.6 °F 71% 29.89 in 10.0 mi North 25.3 mph - N/A   Overcast
8:16 AM 42.8 °F 33.5 °F 37.4 °F 81% 29.89 in 10.0 mi North 23.0 mph - N/A   Overcast
8:36 AM 42.8 °F 33.3 °F 37.4 °F 81% 29.90 in 10.0 mi North 24.2 mph - N/A   Overcast
8:56 AM 42.8 °F 33.8 °F 35.6 °F 76% 29.90 in 10.0 mi North 21.9 mph 27.6 mph N/A   Overcast
9:16 AM 42.8 °F 33.8 °F 37.4 °F 81% 29.91 in 10.0 mi NNE 21.9 mph - N/A   Overcast
9:36 AM 42.8 °F 34.5 °F 35.6 °F 76% 29.91 in 10.0 mi North 18.4 mph - N/A   Overcast
9:56 AM 42.8 °F 34.5 °F 35.6 °F 76% 29.92 in 10.0 mi North 18.4 mph 26.5 mph N/A   Overcast
10:36 AM 42.8 °F 34.8 °F 35.6 °F 76% 29.93 in 10.0 mi North 17.3 mph 24.2 mph N/A   Overcast
10:56 AM 44.6 °F 37.4 °F 35.6 °F 71% 29.93 in 10.0 mi North 16.1 mph 24.2 mph N/A   Overcast
11:16 AM 42.8 °F 34.5 °F 35.6 °F 76% 29.94 in 10.0 mi NNW 18.4 mph - N/A   Overcast
11:36 AM 42.8 °F 34.5 °F 37.4 °F 81% 29.94 in 10.0 mi North 18.4 mph 24.2 mph N/A   Overcast
11:56 AM 42.8 °F 34.8 °F 35.6 °F 76% 29.95 in 10.0 mi North 17.3 mph - N/A   Overcast
12:16 PM 42.8 °F 34.8 °F 35.6 °F 76% 29.95 in 10.0 mi NNW 17.3 mph - N/A   Overcast
12:36 PM 42.8 °F 35.1 °F 35.6 °F 76% 29.96 in 10.0 mi North 16.1 mph - N/A   Overcast
12:56 PM 42.8 °F 34.8 °F 35.6 °F 76% 29.96 in 10.0 mi NNW 17.3 mph - N/A   Overcast
1:36 PM 42.8 °F 35.4 °F 35.6 °F 76% 29.97 in 10.0 mi NNW 15.0 mph - N/A   Overcast
1:56 PM 41.0 °F 33.9 °F 35.6 °F 81% 29.97 in 10.0 mi North 12.7 mph - N/A   Overcast
2:16 PM 42.8 °F 35.1 °F 35.6 °F 76% 29.98 in 10.0 mi NNW 16.1 mph - N/A   Overcast
2:36 PM 42.8 °F 35.8 °F 35.6 °F 76% 29.98 in 10.0 mi NNW 13.8 mph 20.7 mph N/A   Overcast
2:56 PM 42.8 °F 35.8 °F 35.6 °F 76% 29.98 in 10.0 mi North 13.8 mph - N/A   Overcast
3:16 PM 42.8 °F 35.4 °F 35.6 °F 76% 29.98 in 10.0 mi North 15.0 mph - N/A   Overcast
3:36 PM 42.8 °F 35.1 °F 35.6 °F 76% 29.98 in 10.0 mi North 16.1 mph - N/A   Overcast
3:56 PM 42.8 °F 34.5 °F 35.6 °F 76% 29.98 in 10.0 mi North 18.4 mph - N/A   Overcast
4:16 PM 41.0 °F 32.8 °F 35.6 °F 81% 29.98 in 10.0 mi North 16.1 mph - N/A   Overcast
4:56 PM 42.8 °F 35.4 °F 35.6 °F 76% 29.99 in 10.0 mi North 15.0 mph 19.6 mph N/A   Overcast
5:16 PM 42.8 °F 35.4 °F 35.6 °F 76% 29.99 in 10.0 mi North 15.0 mph - N/A   Overcast
5:36 PM 42.8 °F 35.1 °F 35.6 °F 76% 29.99 in 8.0 mi North 16.1 mph - N/A   Overcast
5:56 PM 42.8 °F 35.1 °F 35.6 °F 76% 30.00 in 10.0 mi North 16.1 mph - N/A   Overcast
6:16 PM 42.8 °F 35.4 °F 35.6 °F 76% 30.00 in 10.0 mi North 15.0 mph - N/A   Overcast
6:36 PM 41.0 °F 32.5 °F 35.6 °F 81% 30.00 in 10.0 mi North 17.3 mph - N/A   Overcast
6:56 PM 41.0 °F 33.9 °F 35.6 °F 81% 30.00 in 10.0 mi NNW 12.7 mph - N/A   Overcast
7:16 PM 41.0 °F 33.1 °F 35.6 °F 81% 30.00 in 10.0 mi NNW 15.0 mph - N/A   Overcast
7:36 PM 41.0 °F 33.1 °F 35.6 °F 81% 30.00 in 10.0 mi North 15.0 mph 21.9 mph N/A   Overcast
7:56 PM 41.0 °F 33.5 °F 35.6 °F 81% 30.00 in 10.0 mi NNW 13.8 mph - N/A   Overcast
8:16 PM 41.0 °F 33.1 °F 35.6 °F 81% 30.01 in 5.0 mi NNW 15.0 mph - N/A   Overcast
8:36 PM 41.0 °F 33.9 °F 35.6 °F 81% 30.00 in 10.0 mi North 12.7 mph - N/A   Overcast
8:56 PM 41.0 °F 33.5 °F 33.8 °F 76% 30.01 in 10.0 mi North 13.8 mph 18.4 mph N/A   Overcast
9:16 PM 41.0 °F 33.5 °F 33.8 °F 76% 30.01 in 10.0 mi North 13.8 mph - N/A   Overcast
9:36 PM 39.2 °F 31.2 °F 35.6 °F 87% 30.01 in 10.0 mi North 13.8 mph - N/A   Overcast
9:56 PM 39.2 °F 30.8 °F 33.8 °F 81% 30.02 in 10.0 mi North 15.0 mph 21.9 mph N/A   Overcast
10:16 PM 39.2 °F 30.5 °F 35.6 °F 87% 30.02 in 9.0 mi North 16.1 mph - N/A   Overcast
10:36 PM 39.2 °F 30.8 °F 33.8 °F 81% 30.02 in 10.0 mi North 15.0 mph - N/A   Overcast
10:56 PM 39.2 °F 30.8 °F 33.8 °F 81% 30.02 in 10.0 mi North 15.0 mph - N/A   Overcast
11:16 PM 39.2 °F 31.6 °F 33.8 °F 81% 30.03 in 10.0 mi North 12.7 mph - N/A   Overcast
11:36 PM 39.2 °F 30.5 °F 33.8 °F 81% 30.03 in 10.0 mi NNE 16.1 mph 20.7 mph N/A   Overcast
11:56 PM 39.2 °F 32.0 °F 33.8 °F 81% 30.03 in 10.0 mi North 11.5 mph - N/A   Overcast